{"data":{"norad_id":53892,"intl_designator":"2022-119G","name":"STARLINK-5046","alt_names":[],"object_type":"PAYLOAD","status":"ACTIVE","operator":null,"country":"US","launch_date":"2022-09-24","launch_site_code":"AFETR","launch_vehicle":null,"mission":null,"orbit_class":"UNKNOWN","rcs_meters":null,"size_class":null,"mass_kg":null,"dimensions":null,"purposes":["comms"],"wikipedia_slug":null,"has_3d_model":false,"image_url":null,"decayed_at":null,"tle_current":{"epoch":"2026-05-24T20:21:03.721536Z","epoch_age_seconds":81424,"freshness":"FRESH","line1":"1 53892U 22119G   26144.84795974  .00002846  00000+0  19679-3 0  9996","line2":"2 53892  53.2141 342.1077 0001373 112.6580 247.4557 15.08851017203180","mean_motion":15.08851017,"eccentricity":0.0001373,"inclination_deg":53.2141,"raan_deg":342.1077,"arg_perigee_deg":112.658,"mean_anomaly_deg":247.4557,"bstar":0.00019679,"rev_number":20318,"period_min":95.436857832598,"perigee_km":538.7598942535,"apogee_km":540.65953496134,"semimajor_km":6917.8467146074,"source":"CELESTRAK","updated_at":"2026-05-25T13:38:17.582638Z"}}}